2021 RF237                                                                      
Epoch 2023 Sept. 13.0 TT = JDT 2460200.5                Pike                    
M  64.11463              (2000.0)            P               Q                  
n   0.00333423     Peri.  266.54041     +0.19744864     +0.98015263             
a  44.3750890      Node    14.88319     -0.86976202     +0.18350367             
e   0.0946878      Incl.    3.96136     -0.45224778     +0.07501482             
P 296              H    9.31          G   0.15           U   6                  
Residuals in seconds of arc
K198T  W84  0.1+  0.1-    K20AG  W84  0.0   0.1-    K21A7  W84  0.1-  0.1+ 
K198T  W84  0.1-  0.0     K2195  W84  0.2-  0.1-    K21A7  W84  0.1+  0.1- 
K20AG  W84  0.0   0.2+    K2195  W84  0.2+  0.1+    
2021 RG237                                                                      
Epoch 2023 Sept. 13.0 TT = JDT 2460200.5                Pike                    
M   3.05638              (2000.0)            P               Q                  
n   0.00344200     Peri.  234.72532     +0.99238304     +0.11821818             
a  43.4439080      Node   118.46265     -0.09630423     +0.91986204             
e   0.0783989      Incl.    2.25860     -0.07682053     +0.37400306             
P 286              H    9.07          G   0.15           U   6                  
Residuals in seconds of arc
K198T  W84  0.0   0.0     K20AG  W84  0.1+  0.1+    K21A7  W84  0.0   0.1+ 
K198T  W84  0.1-  0.0     K20AG  W84  0.1-  0.1-    K21A7  W84  0.1-  0.1- 
K199S  W84  0.0   0.1-    K2199  W84  0.0   0.1-    
K199S  W84  0.0   0.1+    K2199  W84  0.0   0.0     
2021 RH237                                                                      
Epoch 2023 Sept. 13.0 TT = JDT 2460200.5                Pike                    
M 127.00142              (2000.0)            P               Q                  
n   0.00328821     Peri.  104.30990     -0.70674457     +0.70659851             
a  44.7880968      Node   120.66325     -0.66379581     -0.64514822             
e   0.0473288      Incl.    2.33735     -0.24471869     -0.29069283             
P 300              H    8.78          G   0.15           U   7                  
Residuals in seconds of arc
K198U  W84  0.0   0.0     K2195  W84  0.2+  0.1+    K21A6  W84  0.1-  0.0  
K198U  W84  0.0   0.0     K2195  W84  0.1-  0.2-    K21A6  W84  0.0   0.2+ 
K20AI  W84  0.0   0.0     K2199  W84  0.4+  0.0     
K20AI  W84  0.0   0.0     K2199  W84  0.5-  0.1-    
M. P. C. Staff               (C) Copyright 2023 MPC           M.P.E.C. 2023-W152
    
    
More information about the Iaude
mailing list